Regional Weather Roundup
Issued by NWS Bismarck, ND

Home | Current Version | Previous Version | Text Only | Print | Product List | Glossary On
Versions: 1 2 3 4 5 6 7 8 9 10 11 12 13 14 15 16 17 18 19 20 21 22 23 24 25 26 27 28 29 30 31 32 33 34 35 36 37 38 39 40 41 42 43 44 45 46 47 48 49 50
000
ASUS43 KBIS 220510
RWRBIS

NWR BROADCAST TEXT
NATIONAL WEATHER SERVICE BISMARCK ND
1100 PM CST SAT JAN 21 2017

NOTE: "FAIR" INDICATES FEW OR NO CLOUDS BELOW 12,000 FEET WITH NO
SIGNIFICANT WEATHER AND/OR OBSTRUCTIONS TO VISIBILITY.


CITY           SKY/WX    TMP DP  RH WIND       PRES   REMARKS
WILLISTON      CLOUDY    30  28  92 W10       29.60R
MINOT          CLOUDY    29  27  92 SW6       29.54R FOG
MINOT AFB      CLOUDY    30  29  94 NW10      29.54R
BISMARCK       FOG       17  15  92 CALM      29.60R VSB 1/2
DICKINSON      FAIR      19  16  88 W13       29.56R WCI   6
GARRISON         N/A     26  24  92 W9        29.56R WCI  17
HETTINGER ARPT FAIR      18  15  88 W9        29.60R WCI   7
JAMESTOWN      CLOUDY    32  31  96 W9        29.56R
CARRINGTON     CLOUDY    32  30  93 W10       29.59R
HAZEN          MOCLDY   N/A N/A N/A SW9       29.61R
MANDAN         FAIR      19  19 100 W7        29.59R WCI  10
RUGBY          FOG       28  28 100 W8        29.56R VSB 3/4
STANLEY        CLOUDY    30  30 100 W12       29.57R FOG
TIOGA          CLOUDY    28  28 100 NW16      29.57R FOG     WCI  17
WATFORD CITY   CLOUDY    23  21  93 SW7       29.60R WCI  15
$$

CITY           SKY/WX    TMP DP  RH WIND       PRES   REMARKS
GRAND FORKS    FOG       34  32  92 CALM      29.56R VSB 1/4
GRAND FORKS AF FOG       32  32 100 CALM      29.56R VSB 1
DEVILS LAKE    CLOUDY    32  30  92 SW7       29.56R
FARGO          FOG       36  34  92 CALM      29.57R VSB 1/4
CAVALIER       FOG       32  32 100 CALM      29.57R VSB<1/4
GRAFTON        FOG       32  32 100 CALM      29.59R VSB 1/4
GWINNER        CLOUDY    34  34 100 CALM      29.57R
ROLLA            N/A    N/A N/A N/A MISG        N/A
$$

CITY           SKY/WX    TMP DP  RH WIND       PRES   REMARKS
ABERDEEN       CLOUDY    33  29  85 NW8       29.58R
MOBRIDGE       FOG       15  11  83 CALM      29.57R VSB 1/4
BUFFALO          N/A     23  19  85 NW9       29.54R WCI  13
RAPID CITY     FAIR      28  22  78 N12       29.62R WCI  18
GLASGOW        CLOUDY    18  15  88 NE5       29.63R WCI  11
SIDNEY         CLOUDY    22  21  96 S3        29.63R
WOLF POINT     FOG       12   9  87 SW6       29.64R VSB 1/4 WCI   3
GLENDIVE       FAIR      17  15  92 CALM      29.63R FOG
MILES CITY     CLOUDY    19  15  84 SW5       29.66R WCI  12
BAKER          FAIR      17  14  88 NW5       29.63R WCI  10
$$

CITY           SKY/WX    TMP DP  RH WIND       PRES   REMARKS
BILLINGS       FAIR      29  20  69 SW14      29.67R WCI  18
GREAT FALLS    CLOUDY    27  22  81 SW6       29.68R
REGINA         FLURRIES  25  23  93 NW14      29.57R WCI  13
ESTEVAN        CLOUDY    27  27 100 W12       29.55R FOG     WCI  16
$$




USA.gov is the U.S. government's official web portal to all federal, state and local government web resources and services.